Regional Weather Roundup
Issued by NWS

Home | Current Version | Previous Version | Text Only | Print | Product List | Glossary Off
Versions: 1 2 3 4 5 6 7 8 9 10 11 12 13 14 15 16 17 18 19 20 21 22 23 24 25 26 27 28 29 30 31 32 33 34 35 36 37 38 39 40 41 42 43 44 45 46 47 48 49 50

847
ASUS43 KIND 180609
RWRIN

WEATHER ROUNDUP FOR INDIANA
NATIONAL WEATHER SERVICE INDIANAPOLIS IN
100 AM EST WED JAN 18 2017

NOTE: "FAIR" INDICATES FEW OR NO CLOUDS BELOW 12,000 FEET WITH NO
SIGNIFICANT WEATHER AND/OR OBSTRUCTIONS TO VISIBILITY.

* - STATION DOES NOT REPORT WEATHER SUCH AS PRECIPITATION OR FOG.

+ - STATION NOT QUALITY CONTROLLED BY THE NATIONAL WEATHER SERVICE.
    USE DATA WITH CAUTION...ESPECIALLY DEWPOINT AND RELATIVE
    HUMIDITY OBSERVATIONS.

INZ001>003-010>013-019-020-180700-
NORTHWEST INDIANA

CITY           SKY/WX    TMP DP  RH WIND       PRES   REMARKS
GARY /AIRPORT/ CLOUDY    37  34  90 W9G16     30.03R FOG
KNOX *+        CLOUDY    34  27  75 W12       30.01S WCI  25
LA PORTE +     CLOUDY    34  33  97 W10       30.00S FOG     WCI  26
6HR MIN TEMP:  34; 6HR MAX TEMP:  36;

MICHIGAN CITY+ CLOUDY    34  34 100 W7        30.01S WCI  28
MONTICELLO +   CLOUDY    35  33  94 W12G17    30.04S FOG     WCI  26
6HR MIN TEMP:  35; 6HR MAX TEMP:  38;

RENSSELAER +   CLOUDY    34  34 100 W12G18    30.04S FOG     WCI  25
VALPARAISO     CLOUDY    36  34  92 W12       30.01S
6HR MIN TEMP:  36; 6HR MAX TEMP:  38;


$$

LMZ046-743>745-180700-
SOUTHERN LAKE MICHIGAN

STATION/POSITION TIME  TEMP    WIND        PRES    WAVE
                       AIR SEA DIR/SP/G            HT
                 (UTC) (F)     (DEG/KT/KT) (MB)    (FT)
BURNS HARBOR     0540   35     260/ 14/ 16 1016.9R

$$

INZ004-005-014>016-021>024-180700-
NORTH CENTRAL INDIANA

CITY           SKY/WX    TMP DP  RH WIND       PRES   REMARKS
GOSHEN         CLOUDY    35  32  88 W15       29.98S FOG     WCI  25
6HR MIN TEMP:  35; 6HR MAX TEMP:  38;

LOGANSPORT +   CLOUDY    34  34 100 W14       30.04S FOG     WCI  24
PERU/GRISSOM   CLOUDY    36  36 100 W15       30.01S
6HR MIN TEMP:  35; 6HR MAX TEMP:  40; 6HR PCP:  0.01;

ROCHESTER +    CLOUDY    36  36 100 W10G16    30.02S
SOUTH BEND     CLOUDY    34  34 100 W12G21    29.99S FOG     WCI  25
6HR MIN TEMP:  34; 6HR MAX TEMP:  37; 6HR PCP:  0.01;

WARSAW +       CLOUDY    34  30  86 W12G17    30.00R WCI  25

$$

INZ006>009-017-018-025>027-180700-
NORTHEAST INDIANA

CITY           SKY/WX    TMP DP  RH WIND       PRES   REMARKS
ANGOLA *+      CLOUDY    36  36 100 W7        29.95S
AUBURN +       CLOUDY    36  34  93 W10G16    29.98S FOG
FORT WAYNE     DRIZZLE   36  33  89 W17G23    30.00S
6HR MIN TEMP:  36; 6HR MAX TEMP:  42; 6HR PCP:  0.01;

HUNTINGTON +   CLOUDY    35  34  96 W13G18    30.00F WCI  26
6HR MIN TEMP:  35; 6HR MAX TEMP:  41;

KENDALLVILLE + CLOUDY    34  34 100 W15       29.96F FOG     WCI  24

$$

INZ028-029-035-036-043>045-051>053-180700-
WEST CENTRAL INDIANA

CITY           SKY/WX    TMP DP  RH WIND       PRES   REMARKS
CRAWFORDSVL +  CLOUDY    33  33 100 W14       30.08S FOG     WCI  24
6HR MIN TEMP:  33; 6HR MAX TEMP:  39;

GREENCASTLE +  CLOUDY    36  34  93 W12G17    30.09S
LAFAYETTE      CLOUDY    35  34  96 W8        30.06S WCI  29
6HR MIN TEMP:  35; 6HR MAX TEMP:  38; 6HR PCP: TRACE;

TERRE HAUTE    CLOUDY    38  34  85 W13G21    30.11S
6HR MIN TEMP:  38; 6HR MAX TEMP:  44; 6HR PCP: TRACE;


$$

INZ030>032-037>040-046>048-054>057-064-065-180700-
CENTRAL INDIANA

CITY           SKY/WX    TMP DP  RH WIND       PRES   REMARKS
CP ATTERBURY + CLOUDY    41  36  81 W9        30.08S
FISHERS *+     CLOUDY    36  36 100 W7        30.07R
FRANKFORT +    DRIZZLE   37  36  94 W15       30.07S
6HR MIN TEMP:  37; 6HR MAX TEMP:  43;

GREENWOOD *+   CLOUDY    39  37  90 W12G20    30.07S
6HR MIN TEMP:  39; 6HR MAX TEMP:  44;

INDIANAPOLIS   DRIZZLE   37  34  89 W14       30.07S
6HR MIN TEMP:  37; 6HR MAX TEMP:  43; 6HR PCP: TRACE;

-EAGLE CREEK   CLOUDY    37  33  85 W14       30.06S
6HR MIN TEMP:  37; 6HR MAX TEMP:  43; 6HR PCP:  0.01;

KOKOMO +       CLOUDY    35  34  96 W13       30.04S WCI  26
6HR MIN TEMP:  35; 6HR MAX TEMP:  42; 6HR PCP:  0.02;

MARION +       CLOUDY    36  36 100 W15G21    30.04R
MT COMFORT *+  CLOUDY    36  34  93 W15       30.06S
SHELBYVILLE    CLOUDY    40  35  83 W16       30.06S
6HR MIN TEMP:  40; 6HR MAX TEMP:  46; 6HR PCP:  0.01;

ZIONSVILLE +   DRIZZLE   34  33  96 W10       30.06S WCI  26
6HR MIN TEMP:  34; 6HR MAX TEMP:  41; 6HR PCP:  0.01;


$$

INZ033-034-041-042-049-050-058-059-180700-
EAST CENTRAL INDIANA

CITY           SKY/WX    TMP DP  RH WIND       PRES   REMARKS
MUNCIE         LGT RAIN  38  34  85 W14       30.03S
6HR MIN TEMP:  38; 6HR MAX TEMP:  44;


$$

INZ060-061-067>069-081>083-085>088-180700-
SOUTHWEST INDIANA

CITY           SKY/WX    TMP DP  RH WIND       PRES   REMARKS
EVANSVILLE     CLOUDY    44  40  85 W5        30.16S
6HR MIN TEMP:  44; 6HR MAX TEMP:  45; 6HR PCP: TRACE;

HUNTINGBURG *+ CLOUDY    41  39  93 W9        30.14R
6HR MIN TEMP:  41; 6HR MAX TEMP:  45; 6HR PCP: TRACE;

WASHINGTON +   CLOUDY    40  38  90 W8        30.13R
6HR MIN TEMP:  40; 6HR MAX TEMP:  44;


$$

INZ062-063-066-070>080-084-089>092-180700-
SOUTH CENTRAL AND SOUTHEAST INDIANA

CITY           SKY/WX    TMP DP  RH WIND       PRES   REMARKS
BLOOMINGTON    CLOUDY    39  35  86 NW8       30.08S
6HR MIN TEMP:  39; 6HR MAX TEMP:  44; 6HR PCP:  0.01;

MADISON *+     CLOUDY    43  39  87 W7        30.09S
NORTH VERNON + CLOUDY   N/A N/A N/A W10G20    30.08S
SEYMOUR +      CLOUDY    43  41  93 W8        30.09R

$$





USA.gov is the U.S. government's official web portal to all federal, state and local government web resources and services.